| time (UTC) | temp F | wind direction | speed MPH | gust MPH | rain 1hr in | rain 24hr in | rain mn in | humidity % | barometer mb |
| 20260508035254 | 55 | 0.0 | 0.0 | 0.00 | 0.17 | 0.00 | 83 | ||
| 20260508034230 | 55 | 0.0 | 0.0 | 0.00 | 0.17 | 0.00 | 83 | ||
| 20260508033254 | 55 | 0.0 | 0.0 | 0.00 | 0.17 | 0.00 | 83 | ||
| 20260508032230 | 55 | 0.0 | 0.0 | 0.00 | 0.17 | 0.00 | 83 | ||
| 20260508031314 | 55 | 0.0 | 0.0 | 0.00 | 0.17 | 0.00 | 83 | ||
| 20260508030231 | 55 | 0.0 | 0.0 | 0.00 | 0.17 | 0.00 | 83 | ||
| 20260508025734 | 55 | 0.0 | 0.0 | 0.00 | 0.17 | 0.00 | 83 | ||
| 20260508024631 | 56 | 0.0 | 0.0 | 0.00 | 0.17 | 0.00 | 83 | ||
| 20260508023654 | 56 | 0.0 | 0.0 | 0.00 | 0.17 | 0.00 | 84 | ||
| 20260508022630 | 56 | 0.0 | 1.0 | 0.00 | 0.17 | 0.00 | 85 | ||
| 20260508021654 | 56 | 0.0 | 1.0 | 0.00 | 0.17 | 0.00 | 85 | ||
| 20260508020630 | 0 | 0.0 | 0.0 | 0.00 | 0.17 | 0.00 | |||
| 20260508015654 | 56 | 0.0 | 1.0 | 0.00 | 0.17 | 0.00 | 85 | ||
| 20260508014630 | 56 | 0.0 | 1.0 | 0.00 | 0.17 | 0.00 | 85 | ||
| 20260508013654 | 56 | 0.0 | 0.0 | 0.00 | 0.17 | 0.00 | 86 | ||
| 20260508012630 | 56 | 0.0 | 0.0 | 0.00 | 0.17 | 0.00 | 86 | ||
| 20260508011654 | 56 | 0.0 | 1.0 | 0.00 | 0.17 | 0.00 | 87 | ||
| 20260508010631 | 56 | 0.0 | 0.0 | 0.00 | 0.17 | 0.00 | 87 | ||
| 20260508005655 | 57 | 0.0 | 0.0 | 0.00 | 0.17 | 0.00 | 88 | ||
| 20260508004630 | 57 | 0.0 | 0.0 | 0.00 | 0.17 | 0.00 | 88 | ||
| 20260508003654 | 57 | 0.0 | 0.0 | 0.00 | 0.17 | 0.00 | 89 | ||
| 20260508002630 | 57 | 0.0 | 1.0 | 0.00 | 0.17 | 0.00 | 89 | ||
| 20260508001715 | 57 | 0.0 | 2.0 | 0.00 | 0.17 | 0.00 | 89 | ||
| 20260508000630 | 0 | 0.0 | 0.0 | 0.00 | 0.17 | 0.00 | |||
| 20260507234630 | 57 | 0.0 | 0.0 | 0.00 | 0.17 | 0.00 | 88 | ||
| 20260507233654 | 57 | 0.0 | 0.0 | 0.00 | 0.17 | 0.00 | 88 | ||
| 20260507232630 | 57 | 0.0 | 0.0 | 0.00 | 0.17 | 0.00 | 88 | ||
| 20260507231655 | 57 | 0.0 | 0.0 | 0.00 | 0.17 | 0.00 | 88 | ||
| 20260507230630 | 57 | 0.0 | 1.0 | 0.00 | 0.17 | 0.00 | 88 | ||
| 20260507225654 | 58 | 0.0 | 1.0 | 0.00 | 0.17 | 0.00 | 88 | ||
| 20260507224630 | 58 | 0.0 | 0.0 | 0.00 | 0.17 | 0.00 | 88 | ||
| 20260507223714 | 58 | 0.0 | 0.0 | 0.00 | 0.17 | 0.00 | 88 | ||
| 20260507222631 | 58 | 0.0 | 0.0 | 0.00 | 0.17 | 0.00 | 88 | ||
| 20260507221714 | 58 | 0.0 | 1.0 | 0.00 | 0.17 | 0.00 | 88 | ||
| 20260507220630 | 0 | 0.0 | 0.0 | 0.00 | 0.17 | 0.00 | |||
| 20260507215654 | 58 | 0.0 | 0.0 | 0.00 | 0.17 | 0.17 | 89 | ||
| 20260507214630 | 58 | 0.0 | 1.0 | 0.00 | 0.17 | 0.17 | 89 | ||
| 20260507213654 | 58 | 0.0 | 0.0 | 0.00 | 0.17 | 0.17 | 89 | ||
| 20260507212650 | 58 | 0.0 | 0.0 | 0.00 | 0.17 | 0.17 | 88 | ||
| 20260507211654 | 59 | 0.0 | 0.0 | 0.00 | 0.17 | 0.17 | 88 | ||
| 20260507210631 | 0 | 0.0 | 0.0 | 0.00 | 0.17 | 0.17 | |||
| 20260507205654 | 59 | 0.0 | 0.0 | 0.00 | 0.17 | 0.17 | 88 | ||
| 20260507204631 | 59 | 0.0 | 0.0 | 0.00 | 0.17 | 0.17 | 88 | ||
| 20260507203656 | 58 | 0.0 | 0.0 | 0.00 | 0.17 | 0.17 | 89 | ||
| 20260507202630 | 58 | 0.0 | 0.0 | 0.00 | 0.17 | 0.17 | 89 | ||
| 20260507201715 | 58 | 0.0 | 0.0 | 0.01 | 0.17 | 0.17 | 88 | ||
| 20260507200631 | 58 | 0.0 | 0.0 | 0.01 | 0.17 | 0.17 | 88 | ||
| 20260507195654 | 58 | 0.0 | 0.0 | 0.02 | 0.17 | 0.17 | 87 | ||
| 20260507194631 | 58 | 0.0 | 0.0 | 0.04 | 0.17 | 0.17 | 87 | ||
| 20260507193654 | 58 | 0.0 | 0.0 | 0.06 | 0.17 | 0.17 | 87 | ||
| 20260507192631 | 58 | 0.0 | 0.0 | 0.07 | 0.17 | 0.17 | 87 | ||
| 20260507191654 | 58 | 0.0 | 0.0 | 0.07 | 0.15 | 0.15 | 87 | ||
| 20260507190631 | 58 | 0.0 | 1.0 | 0.09 | 0.15 | 0.15 | 86 | ||
| 20260507185714 | 58 | 0.0 | 0.0 | 0.11 | 0.14 | 0.14 | 85 | ||
| 20260507184631 | 58 | 0.0 | 1.0 | 0.13 | 0.13 | 0.13 | 84 | ||
| 20260507183655 | 58 | 0.0 | 0.0 | 0.11 | 0.11 | 0.11 | 83 | ||
| 20260507182630 | 58 | 0.0 | 0.0 | 0.09 | 0.09 | 0.09 | 82 | ||
| 20260507181655 | 59 | 0.0 | 0.0 | 0.08 | 0.08 | 0.08 | 80 | ||
| 20260507180631 | 60 | 0.0 | 1.0 | 0.06 | 0.06 | 0.06 | 76 | ||
| 20260507175714 | 62 | 0.0 | 1.0 | 0.04 | 0.04 | 0.04 | 71 | ||
| 20260507174632 | 64 | 180 | 1.0 | 2.0 | 0.00 | 0.00 | 0.00 | 63 | |
| 20260507173655 | 65 | 180 | 1.0 | 4.0 | 0.00 | 0.00 | 0.00 | 59 | |
| 20260507172630 | 67 | 180 | 0.0 | 2.0 | 0.00 | 0.00 | 0.00 | 66 | |
| 20260507171716 | 68 | 0.0 | 0.0 | 0.00 | 0.00 | 0.00 | 66 | ||
| 20260507170631 | 68 | 0.0 | 1.0 | 0.00 | 0.00 | 0.00 | 65 | ||
| 20260507165735 | 68 | 0.0 | 1.0 | 0.00 | 0.00 | 0.00 | 64 | ||
| 20260507164631 | 68 | 0.0 | 1.0 | 0.00 | 0.00 | 0.00 | 64 | ||
| 20260507163655 | 69 | 0.0 | 0.0 | 0.00 | 0.00 | 0.00 | 65 | ||
| 20260507162631 | 68 | 0.0 | 1.0 | 0.00 | 0.00 | 0.00 | 65 | ||
| 20260507161655 | 68 | 0.0 | 1.0 | 0.00 | 0.00 | 0.00 | 64 | ||
| 20260507160632 | 68 | 0.0 | 1.0 | 0.00 | 0.00 | 0.00 | 64 | ||
| 20260507155655 | 68 | 225 | 0.0 | 2.0 | 0.00 | 0.00 | 0.00 | 63 | |
| 20260507154631 | 69 | 0.0 | 1.0 | 0.00 | 0.00 | 0.00 | 63 | ||
| 20260507153715 | 69 | 0.0 | 1.0 | 0.00 | 0.00 | 0.00 | 63 | ||
| 20260507152651 | 69 | 0.0 | 1.0 | 0.00 | 0.00 | 0.00 | 63 | ||
| 20260507151654 | 69 | 0.0 | 0.0 | 0.00 | 0.00 | 0.00 | 64 | ||
| 20260507150631 | 70 | 0.0 | 2.0 | 0.00 | 0.00 | 0.00 | 64 | ||
| 20260507145655 | 70 | 0.0 | 1.0 | 0.00 | 0.00 | 0.00 | 65 | ||
| 20260507144651 | 70 | 0.0 | 1.0 | 0.00 | 0.00 | 0.00 | 65 | ||
| 20260507143655 | 70 | 0.0 | 0.0 | 0.00 | 0.00 | 0.00 | 66 | ||
| 20260507142631 | 70 | 0.0 | 1.0 | 0.00 | 0.00 | 0.00 | 65 | ||
| 20260507141655 | 70 | 0.0 | 1.0 | 0.00 | 0.00 | 0.00 | 63 | ||
| 20260507140631 | 71 | 0.0 | 1.0 | 0.00 | 0.00 | 0.00 | 62 | ||
| 20260507135654 | 71 | 0.0 | 1.0 | 0.00 | 0.00 | 0.00 | 62 | ||
| 20260507134631 | 71 | 0.0 | 2.0 | 0.00 | 0.00 | 0.00 | 61 | ||
| 20260507133655 | 72 | 0.0 | 1.0 | 0.00 | 0.00 | 0.00 | 59 | ||
| 20260507132631 | 73 | 0.0 | 1.0 | 0.00 | 0.00 | 0.00 | 54 | ||
| 20260507131655 | 74 | 315 | 0.0 | 2.0 | 0.00 | 0.00 | 0.00 | 52 | |
| 20260507130632 | 74 | 0.0 | 2.0 | 0.00 | 0.00 | 0.00 | 51 | ||
| 20260507125835 | 74 | 0.0 | 1.0 | 0.00 | 0.00 | 0.00 | 54 | ||
| 20260507124631 | 74 | 0.0 | 1.0 | 0.00 | 0.00 | 0.00 | 53 | ||
| 20260507123716 | 72 | 0.0 | 1.0 | 0.00 | 0.00 | 0.00 | 61 | ||
| 20260507122631 | 69 | 0.0 | 1.0 | 0.00 | 0.00 | 0.00 | 66 | ||
| 20260507121656 | 68 | 0.0 | 2.0 | 0.00 | 0.00 | 0.00 | 70 | ||
| 20260507120631 | 67 | 0.0 | 1.0 | 0.00 | 0.00 | 0.00 | 70 | ||
| 20260507115316 | 67 | 0.0 | 1.0 | 0.00 | 0.00 | 0.00 | 71 | ||
| 20260507114232 | 66 | 0.0 | 0.0 | 0.00 | 0.00 | 0.00 | 71 | ||
| 20260507113255 | 66 | 0.0 | 1.0 | 0.00 | 0.00 | 0.00 | 71 | ||
| 20260507112231 | 66 | 0.0 | 1.0 | 0.00 | 0.00 | 0.00 | 71 | ||
| 20260507111255 | 67 | 0.0 | 1.0 | 0.00 | 0.00 | 0.00 | 70 | ||
| 20260507110231 | 67 | 0.0 | 1.0 | 0.00 | 0.00 | 0.00 | 69 | ||
| 20260507105656 | 67 | 315 | 1.0 | 2.0 | 0.00 | 0.00 | 0.00 | 66 | |
| 20260507104631 | 68 | 90 | 0.0 | 2.0 | 0.00 | 0.00 | 0.00 | 62 | |
| 20260507103656 | 68 | 0.0 | 1.0 | 0.00 | 0.00 | 0.00 | 65 | ||
| 20260507102631 | 68 | 0.0 | 1.0 | 0.00 | 0.00 | 0.00 | 69 | ||
| 20260507101655 | 68 | 0.0 | 2.0 | 0.00 | 0.00 | 0.00 | 68 | ||
| 20260507100631 | 0 | 0.0 | 0.0 | 0.00 | 0.00 | 0.00 | |||
| 20260507095655 | 68 | 360 | 1.0 | 3.0 | 0.00 | 0.00 | 0.00 | 66 | |
| 20260507094631 | 67 | 0.0 | 1.0 | 0.00 | 0.00 | 0.00 | 66 | ||
| 20260507093715 | 67 | 0.0 | 1.0 | 0.00 | 0.00 | 0.00 | 66 | ||
| 20260507092632 | 67 | 113 | 0.0 | 2.0 | 0.00 | 0.00 | 0.00 | 66 | |
| 20260507091655 | 67 | 0.0 | 1.0 | 0.00 | 0.00 | 0.00 | 65 | ||
| 20260507090631 | 66 | 0.0 | 1.0 | 0.00 | 0.00 | 0.00 | 67 | ||
| 20260507085655 | 67 | 225 | 0.0 | 2.0 | 0.00 | 0.00 | 0.00 | 68 | |
| 20260507084632 | 66 | 0.0 | 1.0 | 0.00 | 0.00 | 0.00 | 70 | ||
| 20260507083735 | 66 | 0.0 | 1.0 | 0.00 | 0.00 | 0.00 | 70 | ||
| 20260507082651 | 66 | 0.0 | 1.0 | 0.00 | 0.00 | 0.00 | 70 | ||
| 20260507081655 | 66 | 0.0 | 0.0 | 0.00 | 0.00 | 0.00 | 69 | ||
| 20260507080631 | 0 | 0.0 | 0.0 | 0.00 | 0.00 | 0.00 | |||
| 20260507075655 | 64 | 0.0 | 1.0 | 0.00 | 0.00 | 0.00 | 64 | ||
| 20260507074632 | 64 | 0.0 | 1.0 | 0.00 | 0.00 | 0.00 | 64 | ||
| 20260507073656 | 63 | 0.0 | 1.0 | 0.00 | 0.00 | 0.00 | 68 | ||
| 20260507072631 | 63 | 0.0 | 1.0 | 0.00 | 0.00 | 0.00 | 66 | ||
| 20260507071655 | 63 | 0.0 | 1.0 | 0.00 | 0.00 | 0.00 | 65 | ||
| 20260507070631 | 62 | 0.0 | 1.0 | 0.00 | 0.00 | 0.00 | 64 | ||
| 20260507065655 | 62 | 0.0 | 0.0 | 0.00 | 0.00 | 0.00 | 66 | ||
| 20260507064631 | 61 | 0.0 | 0.0 | 0.00 | 0.00 | 0.00 | 69 | ||
| 20260507063716 | 60 | 0.0 | 1.0 | 0.00 | 0.00 | 0.00 | 70 | ||
| 20260507062631 | 59 | 0.0 | 0.0 | 0.00 | 0.00 | 0.00 | 71 | ||
| 20260507061656 | 59 | 0.0 | 0.0 | 0.00 | 0.00 | 0.00 | 72 | ||
| 20260507060632 | 58 | 0.0 | 1.0 | 0.00 | 0.00 | 0.00 | 73 | ||
| 20260507055716 | 58 | 0.0 | 0.0 | 0.00 | 0.00 | 0.00 | 73 | ||
| 20260507054632 | 57 | 0.0 | 1.0 | 0.00 | 0.00 | 0.00 | 74 | ||
| 20260507053656 | 57 | 0.0 | 0.0 | 0.00 | 0.00 | 0.00 | 74 | ||
| 20260507052632 | 57 | 0.0 | 0.0 | 0.00 | 0.00 | 0.00 | 74 | ||
| 20260507051655 | 57 | 0.0 | 0.0 | 0.00 | 0.00 | 0.00 | 74 | ||
| 20260507050652 | 57 | 0.0 | 0.0 | 0.00 | 0.00 | 0.00 | 74 | ||
| 20260507045656 | 57 | 0.0 | 0.0 | 0.00 | 0.00 | 0.00 | 73 | ||
| 20260507044652 | 57 | 0.0 | 0.0 | 0.00 | 0.00 | 0.00 | 73 | ||
| 20260507043656 | 57 | 0.0 | 0.0 | 0.00 | 0.00 | 0.00 | 73 | ||
| 20260507042652 | 57 | 0.0 | 0.0 | 0.00 | 0.00 | 0.00 | 73 | ||
| 20260507041656 | 58 | 0.0 | 0.0 | 0.00 | 0.00 | 0.00 | 73 | ||
| 20260507040632 | 58 | 0.0 | 1.0 | 0.00 | 0.00 | 0.00 | 73 |